66P/du Toit (2018)

Japanese version
Home page
Updated on November 20, 2018

---------------------------------------------------------------------

* Profile

* Pictures

* Orbital Elements

Epoch 2018 May 2.0 TT = JDT 2458240.5
T 2018 May 19.15935 TT                                  MPCW
q   1.2901046            (2000.0)            P               Q
n   0.06616870     Peri.  257.21317     +0.13917370     +0.98304204
a   6.0538869      Node    21.89631     -0.73799241     +0.18336643
e   0.7868965      Incl.   18.67496     -0.66030136     +0.00225740
P  14.90
From 152 observations 1974 Mar. 22-2018 Feb. 25, mean residual 0".8.
     Nongravitational parameters A1 = -0.01, A2 = -0.0088.

* Finding Charts

* Magnitudes Graph

        m1 = 13.0 + 5 log d + 15.0 log r  [   ,-58]  (             - 2018 Mar. 22)
        m1 =  1.5 + 5 log d + 80   log r  [-58, 58]  (2018 Mar. 22 - 2018 May  19)
        m1 =  7.0 + 5 log d + 30.0 log r  [  0,   ]  (2018 May  19 -             )

---------------------------------------------------------------------

The orbital elements are published on M.P.E.C. 2018-D91.
The charts are made with StellaNavigator Ver.8 (AstroArts).
The magnitudes graphs are made with Comet for Windows.

---------------------------------------------------------------------

Copyright(C) Seiichi Yoshida (comet@aerith.net). All rights reserved.